Wetterdaten: Montag, 25.01.2010
Datum Zeit Temp. A. Feuchte A. Luftdruck Regen Wind Richtung Richtung Sonnenschein UV Solar Windben
25.01.2010 00:00 -1,8 C 89 % 1024,2 hPa 0,0 mm 3,4 km/h (1 Bft) O-SO 117 0 min 0 UV-I 0 W/m 9,7 km/h (2 Bft)
25.01.2010 00:10 -1,8 C 89 % 1024,3 hPa 0,0 mm 3,2 km/h (1 Bft) O-SO 112 0 min 0 UV-I 0 W/m 6,4 km/h (2 Bft)
25.01.2010 00:20 -1,8 C 89 % 1024,2 hPa 0,0 mm 3,2 km/h (1 Bft) O 90 0 min 0 UV-I 0 W/m 8,0 km/h (2 Bft)
25.01.2010 00:30 -1,9 C 89 % 1024,1 hPa 0,0 mm 3,2 km/h (1 Bft) O-SO 112 0 min 0 UV-I 0 W/m 8,0 km/h (2 Bft)
25.01.2010 00:40 -1,9 C 89 % 1024,2 hPa 0,3 mm 3,2 km/h (1 Bft) O-SO 112 0 min 0 UV-I 0 W/m 8,0 km/h (2 Bft)
25.01.2010 00:50 -2,0 C 89 % 1024,2 hPa 0,0 mm 3,2 km/h (1 Bft) O-SO 112 0 min 0 UV-I 0 W/m 9,7 km/h (2 Bft)
25.01.2010 01:00 -2,1 C 89 % 1024,2 hPa 0,0 mm 3,2 km/h (1 Bft) O-SO 112 0 min 0 UV-I 0 W/m 8,0 km/h (2 Bft)
25.01.2010 01:10 -2,1 C 89 % 1024,2 hPa 0,0 mm 1,6 km/h (1 Bft) O-SO 112 0 min 0 UV-I 0 W/m 6,4 km/h (2 Bft)
25.01.2010 01:20 -2,1 C 89 % 1024,2 hPa 0,0 mm 3,2 km/h (1 Bft) O-SO 112 0 min 0 UV-I 0 W/m 6,4 km/h (2 Bft)
25.01.2010 01:30 -2,2 C 89 % 1024,2 hPa 0,0 mm 3,2 km/h (1 Bft) O-SO 112 0 min 0 UV-I 0 W/m 8,0 km/h (2 Bft)
25.01.2010 01:40 -2,2 C 89 % 1024,2 hPa 0,0 mm 3,2 km/h (1 Bft) O 90 0 min 0 UV-I 0 W/m 9,7 km/h (2 Bft)
25.01.2010 01:50 -2,2 C 89 % 1024,2 hPa 0,3 mm 3,2 km/h (1 Bft) O-SO 112 0 min 0 UV-I 0 W/m 6,4 km/h (2 Bft)
25.01.2010 02:00 -2,2 C 89 % 1024,1 hPa 0,0 mm 3,2 km/h (1 Bft) O-SO 112 0 min 0 UV-I 0 W/m 8,0 km/h (2 Bft)
25.01.2010 02:10 -2,2 C 89 % 1024,2 hPa 0,0 mm 3,2 km/h (1 Bft) O-SO 112 0 min 0 UV-I 0 W/m 8,0 km/h (2 Bft)
25.01.2010 02:20 -2,2 C 89 % 1024,2 hPa 0,0 mm 3,2 km/h (1 Bft) O 90 0 min 0 UV-I 0 W/m 6,4 km/h (2 Bft)
25.01.2010 02:30 -2,3 C 89 % 1024,3 hPa 0,0 mm 3,2 km/h (1 Bft) O-SO 112 0 min 0 UV-I 0 W/m 8,0 km/h (2 Bft)
25.01.2010 02:40 -2,3 C 89 % 1024,3 hPa 0,0 mm 3,2 km/h (1 Bft) O 90 0 min 0 UV-I 0 W/m 6,4 km/h (2 Bft)
25.01.2010 02:50 -2,3 C 89 % 1024,3 hPa 0,0 mm 3,2 km/h (1 Bft) O-SO 112 0 min 0 UV-I 0 W/m 6,4 km/h (2 Bft)
25.01.2010 03:00 -2,3 C 89 % 1024,3 hPa 0,0 mm 1,6 km/h (1 Bft) O 90 0 min 0 UV-I 0 W/m 6,4 km/h (2 Bft)
25.01.2010 03:10 -2,3 C 90 % 1024,4 hPa 0,0 mm 1,6 km/h (1 Bft) O-SO 112 0 min 0 UV-I 0 W/m 6,4 km/h (2 Bft)
25.01.2010 03:20 -2,3 C 90 % 1024,4 hPa 0,0 mm 1,6 km/h (1 Bft) O 90 0 min 0 UV-I 0 W/m 6,4 km/h (2 Bft)
25.01.2010 03:30 -2,4 C 90 % 1024,4 hPa 0,0 mm 1,6 km/h (1 Bft) O-SO 112 0 min 0 UV-I 0 W/m 6,4 km/h (2 Bft)
25.01.2010 03:40 -2,4 C 90 % 1024,5 hPa 0,0 mm 1,6 km/h (1 Bft) O-SO 112 0 min 0 UV-I 0 W/m 4,8 km/h (1 Bft)
25.01.2010 03:50 -2,4 C 90 % 1024,5 hPa 0,0 mm 1,6 km/h (1 Bft) O 90 0 min 0 UV-I 0 W/m 6,4 km/h (2 Bft)
25.01.2010 04:00 -2,4 C 89 % 1024,6 hPa 0,0 mm 1,6 km/h (1 Bft) O 90 0 min 0 UV-I 0 W/m 4,8 km/h (1 Bft)
25.01.2010 04:10 -2,4 C 90 % 1024,5 hPa 0,0 mm 1,6 km/h (1 Bft) O 90 0 min 0 UV-I 0 W/m 6,4 km/h (2 Bft)
25.01.2010 04:20 -2,4 C 90 % 1024,6 hPa 0,0 mm 1,6 km/h (1 Bft) O-SO 112 0 min 0 UV-I 0 W/m 4,8 km/h (1 Bft)
25.01.2010 04:30 -2,5 C 90 % 1024,6 hPa 0,0 mm 1,6 km/h (1 Bft) O 90 0 min 0 UV-I 0 W/m 6,4 km/h (2 Bft)
25.01.2010 04:40 -2,5 C 90 % 1024,7 hPa 0,0 mm 1,6 km/h (1 Bft) O 90 0 min 0 UV-I 0 W/m 6,4 km/h (2 Bft)
25.01.2010 04:50 -2,5 C 90 % 1024,8 hPa 0,0 mm 3,2 km/h (1 Bft) O-SO 112 0 min 0 UV-I 0 W/m 6,4 km/h (2 Bft)
25.01.2010 05:00 -2,6 C 90 % 1024,8 hPa 0,0 mm 1,6 km/h (1 Bft) O 90 0 min 0 UV-I 0 W/m 6,4 km/h (2 Bft)
25.01.2010 05:10 -2,6 C 90 % 1024,8 hPa 0,0 mm 1,6 km/h (1 Bft) O 90 0 min 0 UV-I 0 W/m 8,0 km/h (2 Bft)
25.01.2010 05:20 -2,6 C 90 % 1024,9 hPa 0,0 mm 3,2 km/h (1 Bft) O-SO 112 0 min 0 UV-I 0 W/m 9,7 km/h (2 Bft)
25.01.2010 05:30 -2,6 C 90 % 1024,9 hPa 0,0 mm 1,6 km/h (1 Bft) O-SO 112 0 min 0 UV-I 0 W/m 8,0 km/h (2 Bft)
25.01.2010 05:40 -2,7 C 90 % 1024,9 hPa 0,0 mm 3,2 km/h (1 Bft) O 90 0 min 0 UV-I 0 W/m 8,0 km/h (2 Bft)
25.01.2010 05:50 -2,7 C 90 % 1024,9 hPa 0,0 mm 3,2 km/h (1 Bft) O 90 0 min 0 UV-I 0 W/m 8,0 km/h (2 Bft)
25.01.2010 06:00 -2,7 C 90 % 1024,9 hPa 0,0 mm 3,2 km/h (1 Bft) O-SO 112 0 min 0 UV-I 0 W/m 9,7 km/h (2 Bft)
25.01.2010 06:10 -2,8 C 90 % 1024,9 hPa 0,0 mm 3,2 km/h (1 Bft) O 90 0 min 0 UV-I 0 W/m 6,4 km/h (2 Bft)
25.01.2010 06:20 -2,8 C 90 % 1025,0 hPa 0,0 mm 1,6 km/h (1 Bft) O-SO 112 0 min 0 UV-I 0 W/m 6,4 km/h (2 Bft)
25.01.2010 06:30 -2,8 C 90 % 1025,1 hPa 0,0 mm 3,2 km/h (1 Bft) O 90 0 min 0 UV-I 0 W/m 8,0 km/h (2 Bft)
25.01.2010 06:40 -2,8 C 90 % 1025,2 hPa 0,0 mm 3,2 km/h (1 Bft) O-SO 112 0 min 0 UV-I 0 W/m 8,0 km/h (2 Bft)
25.01.2010 06:50 -2,8 C 90 % 1025,3 hPa 0,0 mm 1,6 km/h (1 Bft) O-SO 112 0 min 0 UV-I 0 W/m 6,4 km/h (2 Bft)
25.01.2010 07:00 -2,8 C 90 % 1025,3 hPa 0,0 mm 3,2 km/h (1 Bft) O-SO 112 0 min 0 UV-I 0 W/m 8,0 km/h (2 Bft)
25.01.2010 07:10 -2,8 C 90 % 1025,4 hPa 0,0 mm 3,2 km/h (1 Bft) O 90 0 min 0 UV-I 0 W/m 6,4 km/h (2 Bft)
25.01.2010 07:20 -2,8 C 90 % 1025,5 hPa 0,0 mm 3,2 km/h (1 Bft) O-SO 112 0 min 0 UV-I 0 W/m 8,0 km/h (2 Bft)
25.01.2010 07:30 -2,9 C 90 % 1025,7 hPa 0,0 mm 1,6 km/h (1 Bft) O 90 0 min 0 UV-I 0 W/m 6,4 km/h (2 Bft)
25.01.2010 07:40 -2,9 C 90 % 1025,8 hPa 0,0 mm 1,6 km/h (1 Bft) O 90 0 min 0 UV-I 0 W/m 6,4 km/h (2 Bft)
25.01.2010 07:50 -2,9 C 90 % 1025,9 hPa 0,0 mm 3,2 km/h (1 Bft) O-SO 112 0 min 0 UV-I 0 W/m 9,7 km/h (2 Bft)
25.01.2010 08:00 -2,9 C 90 % 1026,0 hPa 0,0 mm 3,2 km/h (1 Bft) O 90 0 min 0 UV-I 0 W/m 9,7 km/h (2 Bft)
25.01.2010 08:10 -2,9 C 90 % 1026,2 hPa 0,0 mm 3,1 km/h (1 Bft) O 94 0 min 0 UV-I 0 W/m 6,4 km/h (2 Bft)
25.01.2010 08:20 -2,9 C 90 % 1026,4 hPa 0,0 mm 3,2 km/h (1 Bft) O-SO 112 0 min 0 UV-I 0 W/m 8,0 km/h (2 Bft)
25.01.2010 08:30 -2,9 C 90 % 1026,4 hPa 0,0 mm 3,2 km/h (1 Bft) O 90 0 min 0 UV-I 0 W/m 6,4 km/h (2 Bft)
25.01.2010 08:40 -2,9 C 90 % 1026,6 hPa 0,0 mm 1,6 km/h (1 Bft) O 90 0 min 0 UV-I 0 W/m 4,8 km/h (1 Bft)
25.01.2010 08:50 -2,9 C 90 % 1026,8 hPa 0,0 mm 3,2 km/h (1 Bft) O 90 0 min 0 UV-I 0 W/m 9,7 km/h (2 Bft)
25.01.2010 09:00 -2,9 C 90 % 1026,8 hPa 0,0 mm 3,2 km/h (1 Bft) O 90 0 min 0 UV-I 5 W/m 9,7 km/h (2 Bft)
25.01.2010 09:10 -2,9 C 90 % 1027,0 hPa 0,0 mm 3,2 km/h (1 Bft) O 90 0 min 0 UV-I 7 W/m 8,0 km/h (2 Bft)
25.01.2010 09:20 -2,8 C 90 % 1027,1 hPa 0,0 mm 3,2 km/h (1 Bft) O 90 0 min 0 UV-I 11 W/m 11,3 km/h (2 Bft)
25.01.2010 09:30 -2,8 C 90 % 1027,2 hPa 0,0 mm 3,2 km/h (1 Bft) O-SO 112 0 min 0 UV-I 12 W/m 8,0 km/h (2 Bft)
25.01.2010 09:40 -2,7 C 90 % 1027,3 hPa 0,0 mm 3,2 km/h (1 Bft) O 90 0 min 0 UV-I 16 W/m 9,7 km/h (2 Bft)
25.01.2010 09:50 -2,6 C 90 % 1027,3 hPa 0,0 mm 3,2 km/h (1 Bft) O 90 0 min 0 UV-I 18 W/m 8,0 km/h (2 Bft)
25.01.2010 10:00 -2,6 C 90 % 1027,4 hPa 0,0 mm 3,2 km/h (1 Bft) O 90 0 min 0 UV-I 18 W/m 8,0 km/h (2 Bft)
25.01.2010 10:10 -2,5 C 91 % 1027,5 hPa 0,0 mm 3,2 km/h (1 Bft) O 90 0 min 0 UV-I 19 W/m 8,0 km/h (2 Bft)
25.01.2010 10:20 -2,4 C 90 % 1027,6 hPa 0,0 mm 3,2 km/h (1 Bft) O 90 0 min 0 UV-I 21 W/m 9,7 km/h (2 Bft)
25.01.2010 10:30 -2,3 C 90 % 1027,7 hPa 0,0 mm 3,2 km/h (1 Bft) O 90 0 min 0 UV-I 23 W/m 8,0 km/h (2 Bft)
25.01.2010 10:40 -2,2 C 90 % 1027,8 hPa 0,0 mm 4,8 km/h (1 Bft) O 90 0 min 0 UV-I 23 W/m 11,3 km/h (2 Bft)
25.01.2010 10:50 -2,2 C 90 % 1027,9 hPa 0,0 mm 3,2 km/h (1 Bft) O-SO 112 0 min 0 UV-I 26 W/m 11,3 km/h (2 Bft)
25.01.2010 11:00 -2,1 C 90 % 1028,0 hPa 0,0 mm 3,2 km/h (1 Bft) O 90 0 min 0 UV-I 33 W/m 8,0 km/h (2 Bft)
25.01.2010 11:10 -1,9 C 90 % 1028,0 hPa 0,0 mm 3,2 km/h (1 Bft) O 90 0 min 0 UV-I 42 W/m 9,7 km/h (2 Bft)
25.01.2010 11:20 -1,7 C 90 % 1028,0 hPa 0,0 mm 3,2 km/h (1 Bft) O-SO 112 0 min 0 UV-I 49 W/m 9,7 km/h (2 Bft)
25.01.2010 11:30 -1,5 C 89 % 1028,1 hPa 0,0 mm 3,2 km/h (1 Bft) O-SO 112 0 min 0 UV-I 49 W/m 9,7 km/h (2 Bft)
25.01.2010 11:40 -1,3 C 89 % 1027,9 hPa 0,0 mm 4,8 km/h (1 Bft) O 90 0 min 0 UV-I 51 W/m 11,3 km/h (2 Bft)
25.01.2010 11:50 -1,2 C 88 % 1028,0 hPa 0,0 mm 4,8 km/h (1 Bft) O 90 0 min 0 UV-I 53 W/m 11,3 km/h (2 Bft)
25.01.2010 12:00 -1,1 C 87 % 1028,1 hPa 0,0 mm 4,8 km/h (1 Bft) O 90 0 min 0 UV-I 67 W/m 14,5 km/h (3 Bft)
25.01.2010 12:10 -0,9 C 85 % 1028,1 hPa 0,0 mm 4,8 km/h (1 Bft) O 90 0 min 0 UV-I 76 W/m 9,7 km/h (2 Bft)
25.01.2010 12:20 -0,7 C 84 % 1028,1 hPa 0,0 mm 4,8 km/h (1 Bft) O 90 0 min 0 UV-I 84 W/m 9,7 km/h (2 Bft)
25.01.2010 12:30 -0,6 C 83 % 1028,2 hPa 0,0 mm 4,8 km/h (1 Bft) O 90 0 min 0 UV-I 81 W/m 8,0 km/h (2 Bft)
25.01.2010 12:40 -0,4 C 82 % 1028,1 hPa 0,0 mm 4,8 km/h (1 Bft) O-SO 112 0 min 0 UV-I 93 W/m 9,7 km/h (2 Bft)
25.01.2010 12:50 -0,3 C 81 % 1028,1 hPa 0,0 mm 3,2 km/h (1 Bft) O 90 0 min 0 UV-I 100 W/m 11,3 km/h (2 Bft)
25.01.2010 13:00 -0,2 C 80 % 1028,0 hPa 0,3 mm 4,8 km/h (1 Bft) O 90 0 min 0 UV-I 121 W/m 9,7 km/h (2 Bft)
25.01.2010 13:10 -0,1 C 79 % 1028,0 hPa 0,0 mm 4,8 km/h (1 Bft) O-SO 112 0 min 0 UV-I 125 W/m 9,7 km/h (2 Bft)
25.01.2010 13:20 0,0 C 79 % 1028,0 hPa 0,0 mm 3,2 km/h (1 Bft) O 90 0 min 0 UV-I 174 W/m 8,0 km/h (2 Bft)
25.01.2010 13:30 0,2 C 79 % 1027,9 hPa 0,3 mm 1,6 km/h (1 Bft) O 90 10 min 0 UV-I 179 W/m 6,4 km/h (2 Bft)
25.01.2010 13:40 0,4 C 78 % 1027,9 hPa 0,5 mm 3,2 km/h (1 Bft) O 90 10 min 0 UV-I 253 W/m 6,4 km/h (2 Bft)
25.01.2010 13:50 0,7 C 77 % 1028,0 hPa 0,8 mm 4,8 km/h (1 Bft) O 90 10 min 0 UV-I 346 W/m 9,7 km/h (2 Bft)
25.01.2010 14:00 0,8 C 77 % 1028,0 hPa 0,3 mm 3,2 km/h (1 Bft) O 90 10 min 0 UV-I 269 W/m 9,7 km/h (2 Bft)
25.01.2010 14:10 0,8 C 77 % 1028,1 hPa 0,3 mm 3,2 km/h (1 Bft) O 90 10 min 0 UV-I 204 W/m 6,4 km/h (2 Bft)
25.01.2010 14:20 0,9 C 76 % 1028,1 hPa 0,0 mm 3,2 km/h (1 Bft) O 90 10 min 0 UV-I 181 W/m 8,0 km/h (2 Bft)
25.01.2010 14:30 0,9 C 75 % 1028,1 hPa 0,3 mm 3,2 km/h (1 Bft) O 90 0 min 0 UV-I 139 W/m 8,0 km/h (2 Bft)
25.01.2010 14:40 0,8 C 75 % 1028,2 hPa 0,0 mm 3,2 km/h (1 Bft) O 90 0 min 0 UV-I 116 W/m 9,7 km/h (2 Bft)
25.01.2010 14:50 0,7 C 75 % 1028,3 hPa 0,3 mm 3,2 km/h (1 Bft) O-SO 112 0 min 0 UV-I 116 W/m 9,7 km/h (2 Bft)
25.01.2010 15:00 0,5 C 76 % 1028,6 hPa 0,0 mm 1,6 km/h (1 Bft) O 90 0 min 0 UV-I 123 W/m 8,0 km/h (2 Bft)
25.01.2010 15:10 0,4 C 76 % 1028,8 hPa 0,0 mm 1,6 km/h (1 Bft) O 90 0 min 0 UV-I 93 W/m 6,4 km/h (2 Bft)
25.01.2010 15:20 0,2 C 76 % 1029,0 hPa 0,3 mm 1,6 km/h (1 Bft) O-SO 112 0 min 0 UV-I 44 W/m 8,0 km/h (2 Bft)
25.01.2010 15:30 0,1 C 76 % 1028,9 hPa 0,0 mm 1,6 km/h (1 Bft) O 90 0 min 0 UV-I 30 W/m 6,4 km/h (2 Bft)
25.01.2010 15:40 -0,2 C 77 % 1029,0 hPa 0,0 mm 1,6 km/h (1 Bft) O 90 0 min 0 UV-I 70 W/m 4,8 km/h (1 Bft)
25.01.2010 15:50 -0,3 C 78 % 1029,2 hPa 0,0 mm 1,6 km/h (1 Bft) O 90 0 min 0 UV-I 65 W/m 4,8 km/h (1 Bft)
25.01.2010 16:00 -0,3 C 79 % 1029,2 hPa 0,0 mm 1,7 km/h (1 Bft) O 100 0 min 0 UV-I 34 W/m 4,8 km/h (1 Bft)
25.01.2010 16:10 -0,4 C 79 % 1029,4 hPa 0,3 mm 1,6 km/h (1 Bft) O 90 0 min 0 UV-I 40 W/m 6,4 km/h (2 Bft)
25.01.2010 16:20 -0,5 C 79 % 1029,7 hPa 0,0 mm 1,6 km/h (1 Bft) O 90 0 min 0 UV-I 32 W/m 4,8 km/h (1 Bft)
25.01.2010 16:30 -0,6 C 79 % 1029,9 hPa 0,0 mm 1,6 km/h (1 Bft) O-NO 67 0 min 0 UV-I 21 W/m 6,4 km/h (2 Bft)
25.01.2010 16:40 -0,7 C 79 % 1030,1 hPa 0,0 mm 1,6 km/h (1 Bft) O 90 0 min 0 UV-I 11 W/m 4,8 km/h (1 Bft)
25.01.2010 16:50 -0,8 C 79 % 1030,1 hPa 0,0 mm 1,6 km/h (1 Bft) O 90 0 min 0 UV-I 7 W/m 4,8 km/h (1 Bft)
25.01.2010 17:00 -0,9 C 79 % 1030,4 hPa 0,0 mm 1,6 km/h (1 Bft) O 90 0 min 0 UV-I 0 W/m 4,8 km/h (1 Bft)
25.01.2010 17:10 -1,1 C 79 % 1030,4 hPa 0,0 mm 1,6 km/h (1 Bft) O-NO 67 0 min 0 UV-I 0 W/m 6,4 km/h (2 Bft)
25.01.2010 17:20 -1,2 C 80 % 1030,7 hPa 0,0 mm 0,0 km/h (0 Bft) NO 45 0 min 0 UV-I 0 W/m 4,8 km/h (1 Bft)
25.01.2010 17:30 -1,4 C 80 % 1030,8 hPa 0,0 mm 1,6 km/h (1 Bft) NO 45 0 min 0 UV-I 0 W/m 4,8 km/h (1 Bft)
25.01.2010 17:40 -1,6 C 80 % 1030,8 hPa 0,0 mm 1,6 km/h (1 Bft) O 90 0 min 0 UV-I 0 W/m 6,4 km/h (2 Bft)
25.01.2010 17:50 -1,7 C 80 % 1030,9 hPa 0,0 mm 1,6 km/h (1 Bft) O 90 0 min 0 UV-I 0 W/m 4,8 km/h (1 Bft)
25.01.2010 18:00 -1,9 C 80 % 1031,1 hPa 0,0 mm 3,2 km/h (1 Bft) O 90 0 min 0 UV-I 0 W/m 8,0 km/h (2 Bft)
25.01.2010 18:10 -2,2 C 80 % 1031,2 hPa 0,0 mm 2,3 km/h (1 Bft) O 84 0 min 0 UV-I 0 W/m 8,0 km/h (2 Bft)
25.01.2010 18:20 -2,4 C 80 % 1031,4 hPa 0,0 mm 3,3 km/h (1 Bft) O 82 0 min 0 UV-I 0 W/m 8,0 km/h (2 Bft)
25.01.2010 18:30 -2,7 C 80 % 1031,4 hPa 0,0 mm 2,3 km/h (1 Bft) O-NO 69 0 min 0 UV-I 0 W/m 9,7 km/h (2 Bft)
25.01.2010 18:40 -2,9 C 80 % 1031,3 hPa 0,0 mm 2,0 km/h (1 Bft) O-NO 71 0 min 0 UV-I 0 W/m 8,0 km/h (2 Bft)
25.01.2010 18:50 -3,1 C 80 % 1031,3 hPa 0,0 mm 2,1 km/h (1 Bft) O-NO 70 0 min 0 UV-I 0 W/m 6,4 km/h (2 Bft)
25.01.2010 19:00 -3,2 C 80 % 1031,6 hPa 0,0 mm 1,1 km/h (1 Bft) O 92 0 min 0 UV-I 0 W/m 3,2 km/h (1 Bft)
25.01.2010 19:10 -3,4 C 81 % 1031,6 hPa 0,0 mm 0,5 km/h (0 Bft) O 91 0 min 0 UV-I 0 W/m 3,2 km/h (1 Bft)
25.01.2010 19:20 -3,5 C 81 % 1031,7 hPa 0,0 mm 0,8 km/h (0 Bft) O 92 0 min 0 UV-I 0 W/m 4,8 km/h (1 Bft)
25.01.2010 19:30 -3,6 C 81 % 1032,0 hPa 0,0 mm 1,3 km/h (1 Bft) NO 36 0 min 0 UV-I 0 W/m 4,8 km/h (1 Bft)
25.01.2010 19:40 -3,8 C 81 % 1032,2 hPa 0,0 mm 3,6 km/h (1 Bft) N 355 0 min 0 UV-I 0 W/m 8,0 km/h (2 Bft)
25.01.2010 19:50 -3,9 C 81 % 1032,1 hPa 0,0 mm 0,8 km/h (0 Bft) O 80 0 min 0 UV-I 0 W/m 4,8 km/h (1 Bft)
25.01.2010 20:00 -4,0 C 81 % 1032,1 hPa 0,0 mm 0,9 km/h (0 Bft) O 90 0 min 0 UV-I 0 W/m 4,8 km/h (1 Bft)
25.01.2010 20:10 -4,2 C 81 % 1032,1 hPa 0,0 mm 0,7 km/h (0 Bft) O-NO 69 0 min 0 UV-I 0 W/m 3,2 km/h (1 Bft)
25.01.2010 20:20 -4,3 C 81 % 1032,3 hPa 0,0 mm 0,6 km/h (0 Bft) O-NO 69 0 min 0 UV-I 0 W/m 3,2 km/h (1 Bft)
25.01.2010 20:30 -4,4 C 81 % 1032,2 hPa 0,0 mm 0,3 km/h (0 Bft) O-NO 69 0 min 0 UV-I 0 W/m 3,2 km/h (1 Bft)
25.01.2010 20:40 -4,5 C 81 % 1032,3 hPa 0,0 mm 0,3 km/h (0 Bft) O-NO 69 0 min 0 UV-I 0 W/m 3,2 km/h (1 Bft)
25.01.2010 20:50 -4,7 C 81 % 1032,5 hPa 0,0 mm 0,3 km/h (0 Bft) O-NO 69 0 min 0 UV-I 0 W/m 3,2 km/h (1 Bft)
25.01.2010 21:00 -4,9 C 81 % 1032,5 hPa 0,0 mm 0,1 km/h (0 Bft) O-NO 69 0 min 0 UV-I 0 W/m 1,6 km/h (1 Bft)
25.01.2010 21:10 -5,2 C 81 % 1032,7 hPa 0,0 mm 0,7 km/h (0 Bft) O-NO 59 0 min 0 UV-I 0 W/m 4,8 km/h (1 Bft)
25.01.2010 21:20 -5,4 C 81 % 1032,8 hPa 0,0 mm 0,4 km/h (0 Bft) NO 38 0 min 0 UV-I 0 W/m 4,8 km/h (1 Bft)
25.01.2010 21:30 -5,7 C 81 % 1032,8 hPa 0,0 mm 0,4 km/h (0 Bft) NO 56 0 min 0 UV-I 0 W/m 4,8 km/h (1 Bft)
25.01.2010 21:40 -5,8 C 81 % 1032,9 hPa 0,0 mm 0,1 km/h (0 Bft) NO 56 0 min 0 UV-I 0 W/m 1,6 km/h (1 Bft)
25.01.2010 21:50 -6,1 C 81 % 1033,0 hPa 0,0 mm 0,1 km/h (0 Bft) NO 56 0 min 0 UV-I 0 W/m 1,6 km/h (1 Bft)
25.01.2010 22:00 -6,3 C 81 % 1033,1 hPa 0,0 mm 0,0 km/h (0 Bft) NO 56 0 min 0 UV-I 0 W/m 0,0 km/h (0 Bft)
25.01.2010 22:10 -6,6 C 81 % 1033,2 hPa 0,0 mm 0,0 km/h (0 Bft) NO 56 0 min 0 UV-I 0 W/m 0,0 km/h (0 Bft)
25.01.2010 22:20 -6,8 C 81 % 1033,3 hPa 0,0 mm 0,0 km/h (0 Bft) NO 56 0 min 0 UV-I 0 W/m 0,0 km/h (0 Bft)
25.01.2010 22:30 -7,0 C 81 % 1033,4 hPa 0,0 mm 0,0 km/h (0 Bft) NO 56 0 min 0 UV-I 0 W/m 0,0 km/h (0 Bft)
25.01.2010 22:40 -7,2 C 81 % 1033,6 hPa 0,0 mm 0,1 km/h (0 Bft) NO 56 0 min 0 UV-I 0 W/m 1,6 km/h (1 Bft)
25.01.2010 22:50 -7,4 C 81 % 1033,7 hPa 0,0 mm 0,0 km/h (0 Bft) NO 56 0 min 0 UV-I 0 W/m 1,6 km/h (1 Bft)
25.01.2010 23:00 -7,6 C 81 % 1033,9 hPa 0,0 mm 0,0 km/h (0 Bft) NO 56 0 min 0 UV-I 0 W/m 0,0 km/h (0 Bft)
25.01.2010 23:10 -7,8 C 81 % 1033,8 hPa 0,0 mm 0,0 km/h (0 Bft) NO 56 0 min 0 UV-I 0 W/m 0,0 km/h (0 Bft)
25.01.2010 23:20 -8,0 C 81 % 1034,1 hPa 0,0 mm 0,0 km/h (0 Bft) NO 56 0 min 0 UV-I 0 W/m 0,0 km/h (0 Bft)
25.01.2010 23:30 -8,2 C 81 % 1034,2 hPa 0,0 mm 0,0 km/h (0 Bft) NO 56 0 min 0 UV-I 0 W/m 1,6 km/h (1 Bft)
25.01.2010 23:40 -8,3 C 82 % 1034,3 hPa 0,0 mm 0,0 km/h (0 Bft) NO 56 0 min 0 UV-I 0 W/m 1,6 km/h (1 Bft)
25.01.2010 23:51 -8,4 C 82 % 1034,4 hPa 0,0 mm 0,6 km/h (0 Bft) NO 56 0 min 0 UV-I 0 W/m 3,2 km/h (1 Bft)
_ Min-Zeit 23:51 14:30 00:30 - 17:20 - - - - - 22:00
Minimum _ -8,4 C 75 % 1024,1 hPa - 0,0 km/h (0 Bft) - - - - - 0,0 km/h (0 Bft)
_ Max-Zeit 14:10 10:10 23:51 13:50 10:40 - - 13:30 00:00 13:50 12:00
Maximum _ 0,9 C 91 % 1034,4 hPa 0,8 mm 4,8 km/h
O (1 Bft)
- - 10 min 0 UV-I 346 W/m 14,5 km/h
O-NO (3 Bft)
Durchschnitt _ -2,6 C 85 % 1028,2 hPa #3,8 mm 2,3 km/h (1 Bft) O - #1:00 h 0 UV-I 79 W/m 6,6 km/h (2 Bft)